Voltar ao catálogo

STARLINK-30169

AtivoComunicaçõesVLEO
NORAD 57499·PAYLOAD·🇺🇸 United States

Lançado Aug 7, 2023 de Cape Canaveral Space Force Station

Loading…

Próximas Passagens (próximas 24 horas)

TLE

AtualizadoSource: CelesTrak SupGP

Época: Sep 15, 2026, 01:50 UTC

1 57499C 23113E   26258.07687500 -.00060528  00000+0 -21924-2 0  2580
2 57499  43.0040  12.3305 0001926 266.7674 202.5340 15.27607321    18

Acompanhe STARLINK-30169 em tempo real com AllMySat

Download on the App Store